SCP
0 0 0 0 0 0 0 0 0 0 1 1 1 1 1 1 1 0 0 1 1 2 2 2 2 2 2 2 2 2 2 2 1 1 1 1 1 1 1 1 1 1 1 1 1 1 1 1 1
0 0 0 0 0 0 0 0 0 1 1 1 1 1 1 1 1 1 1 1 2 2 2 2 2 2 2 2 2 2 2 2 2 2 2 1 1 1 1 1 1 1 1 1 1 1 1 1 1
0 0 0 0 0 0 0 0 1 1 1 1 1 1 1 1 1 1 2 2 2 2 3 2 3 2 2 2 2 2 2 2 2 2 2 1 1 1 1 1 1 1 1 1 1 1 1 1 1
0 0 0 0 0 0 0 1 1 1 1 2 2 2 2 1 1 2 2 2 2 2 3 3 3 3 3 2 2 2 2 2 2 2 2 2 1 1 1 1 1 1 1 1 1 2 2 2 2
0 0 0 0 0 0 0 1 1 1 1 2 2 2 2 2 1 2 2 2 2 2 2 3 3 3 3 3 2 2 2 2 2 2 2 2 2 2 2 1 1 1 1 1 1 2 2 2 2
0 0 0 0 0 1 1 1 1 1 1 2 2 2 2 2 2 2 3 3 2 2 2 3 3 4 4 3 3 2 2 2 2 2 2 2 1 1 1 1 1 1 1 1 1 1 1 1 1
0 0 0 0 1 1 1 1 1 1 1 1 2 2 2 2 2 3 4 4 2 2 2 3 3 4 4 4 3 3 2 2 2 2 2 1 1 1 1 1 1 1 1 1 1 1 1 1 1
0 0 0 0 1 1 1 1 2 2 1 2 2 2 2 2 3 4 5 4 3 2 2 3 3 3 4 4 3 3 3 2 2 2 2 1 1 1 1 1 1 1 1 1 1 1 1 1 1
0 0 0 0 1 1 1 1 2 2 2 2 2 2 3 3 4 5 6 5 4 3 3 3 3 3 3 4 3 3 3 2 2 2 2 2 1 1 1 1 1 1 1 1 1 1 1 1 1
0 0 1 1 1 1 1 1 2 2 2 2 2 3 3 4 5 6 6 5 5 4 3 3 3 3 3 3 3 3 3 2 2 2 2 2 1 1 1 1 1 1 1 1 1 1 1 1 1
0 1 1 1 1 1 2 2 2 2 2 2 3 3 4 4 5 5 6 6 6 5 4 4 4 4 4 3 3 3 3 2 2 2 2 2 2 1 1 1 1 1 1 1 1 1 1 2 2
1 1 1 1 1 2 2 1 1 1 1 2 3 4 4 4 4 5 5 5 5 5 4 4 5 5 4 4 3 3 3 2 2 2 2 2 2 1 1 1 1 1 1 1 1 1 1 2 2
1 1 1 1 1 1 1 1 1 1 2 3 4 4 4 3 4 4 5 5 5 5 5 5 5 6 5 4 4 4 3 3 2 2 2 2 2 1 1 1 1 1 1 1 1 1 1 1 1
1 1 2 1 1 1 1 2 2 2 2 3 4 4 4 3 3 4 4 4 4 5 6 6 5 5 5 5 4 3 3 3 2 2 1 1 1 1 1 1 1 1 1 1 1 1 1 1 1
1 1 1 1 1 1 1 2 2 2 3 3 4 4 4 4 3 3 3 3 4 5 6 6 5 4 4 4 3 3 3 2 2 1 1 1 1 1 1 1 1 1 1 0 1 1 1 1 1
1 1 1 1 1 1 1 2 2 2 2 3 4 4 4 4 3 3 3 3 4 5 6 5 4 4 3 3 3 3 3 2 2 1 1 1 1 1 1 1 1 1 0 0 0 0 0 1 1
0 0 1 1 1 1 1 1 2 2 2 3 3 4 4 3 3 3 3 3 4 5 5 4 4 3 3 3 4 3 3 2 2 2 1 1 1 1 1 1 1 1 0 0 0 0 0 0 0
0 0 1 1 1 1 1 1 1 2 2 3 3 3 3 3 3 3 4 4 4 4 4 4 3 3 3 4 4 3 2 2 2 2 1 1 1 1 1 1 1 1 1 1 0 0 0 0 0
0 0 1 1 1 1 1 1 1 1 2 2 3 3 3 3 3 4 4 4 4 5 5 5 4 4 4 4 4 3 2 2 2 2 1 1 1 1 1 1 1 1 1 1 0 0 0 0 0
0 0 1 1 1 1 1 1 1 1 1 2 2 2 3 3 3 4 4 4 5 5 6 6 6 5 4 4 3 2 2 1 1 1 1 1 1 1 1 2 2 1 1 1 0 0 0 0 0
0 0 0 1 1 1 1 1 1 1 1 2 2 2 3 3 3 3 3 4 4 5 6 7 6 5 4 4 3 2 2 1 1 1 1 0 0 1 1 1 2 1 1 0 0 0 0 0 0
0 0 0 1 1 1 1 1 0 1 1 1 2 3 3 3 2 3 3 3 4 5 6 6 6 5 4 4 3 2 1 1 1 1 0 0 0 0 0 1 1 1 0 0 0 0 0 0 0
0 0 0 0 1 1 0 0 0 0 1 1 2 3 3 2 2 2 3 3 3 5 6 6 5 5 5 4 3 2 1 1 1 0 0 0 0 0 0 0 0 0 0 0 0 0 0 0 0
0 0 0 0 0 0 0 0 0 0 1 1 2 3 3 2 2 2 3 3 3 5 6 6 5 6 5 4 3 2 1 1 0 0 0 0 0 0 0 0 0 0 0 0 0 0 0 0 0
0 0 0 0 0 0 0 0 0 0 1 1 2 3 3 2 2 2 3 4 4 5 6 6 5 5 5 4 3 2 1 0 0 0 0 0 0 0 0 0 0 0 0 0 0 0 0 0 0
0 0 0 0 0 0 0 0 0 1 1 1 1 2 2 2 2 3 3 4 4 4 6 7 5 4 4 4 3 1 1 0 0 0 0 0 0 0 0 0 0 0 0 0 0 0 0 0 0
0 0 0 0 0 0 0 0 0 1 1 1 1 2 2 3 3 3 3 3 3 3 5 7 6 4 3 3 2 1 1 1 0 0 0 0 0 0 0 0 0 0 0 0 0 0 0 0 0
0 0 0 0 0 0 0 0 0 0 1 1 1 2 2 2 2 2 2 3 2 2 4 6 6 5 3 3 2 1 1 1 0 0 0 0 0 0 0 0 0 0 0 0 0 0 0 0 0
0 0 0 0 0 0 0 0 0 0 0 1 1 1 1 2 2 2 2 2 2 1 3 6 7 6 4 3 2 1 1 1 0 0 0 0 0 0 0 0 0 0 0 0 0 0 0 0 0
0 0 0 0 0 0 0 0 0 0 0 1 1 1 1 1 2 2 3 2 1 1 3 6 8 6 5 3 2 1 1 1 0 0 0 0 0 0 0 0 0 0 0 0 0 0 0 0 0
Wind_Speed
1 2 2 3 5 4 2 4 2 1 0 1 3 3 5 4 4 3 1 9 13 12 11 14 16 16 16 15 15 15 14 14 14 13 12 12 11 10 9 8 7 6 6 5 5 4 4 4 3
1 2 3 5 5 1 4 4 2 1 2 2 3 3 4 2 2 4 4 7 13 12 10 11 17 16 16 15 14 14 13 13 12 12 11 10 10 9 8 7 6 5 5 4 3 3 3 3 2
2 2 4 5 4 5 4 2 2 1 1 1 3 2 3 2 3 4 5 11 11 10 9 11 17 16 15 15 14 13 13 12 11 11 10 9 8 7 6 6 5 4 3 3 3 2 2 2 1
3 4 5 4 3 5 4 2 1 1 2 2 3 3 2 2 4 5 11 13 12 10 8 11 17 16 15 14 13 12 12 11 10 9 9 8 7 6 5 4 3 3 2 2 2 2 1 1 1
4 5 4 1 4 4 3 3 3 1 1 1 3 3 1 3 8 12 13 12 12 9 7 9 15 15 14 13 13 12 11 10 9 8 7 6 5 5 4 3 2 1 1 1 1 1 1 2 3
5 5 4 2 4 4 3 2 2 2 2 2 3 3 1 3 8 12 11 10 9 10 7 7 14 14 13 13 12 11 10 9 8 7 6 5 4 3 3 2 1 1 1 1 2 2 3 3 3
5 5 4 3 2 3 2 1 2 2 2 3 4 4 2 4 6 10 10 9 8 8 7 5 6 8 11 12 11 10 9 8 7 6 5 5 4 3 2 1 0 1 1 2 3 3 3 4 4
5 5 2 2 2 3 2 1 1 2 1 2 4 6 5 6 8 9 9 9 8 6 5 5 5 4 5 6 9 9 8 7 6 5 4 3 2 1 1 0 1 1 1 2 2 3 3 3 4
4 5 2 4 4 3 1 1 1 1 3 1 1 2 6 14 13 10 9 7 7 7 5 4 5 4 4 4 5 6 6 5 4 3 3 2 1 1 1 2 1 2 2 2 3 3 3 3 3
4 3 6 5 4 2 1 1 1 2 1 1 2 4 11 15 14 12 11 10 10 9 7 5 5 4 4 4 3 2 3 2 2 2 1 1 1 1 1 2 2 2 2 2 3 3 3 3 2
4 5 4 3 3 2 1 1 1 4 3 5 7 11 14 14 13 11 10 9 9 8 7 5 5 5 4 3 3 2 1 2 2 2 2 2 1 1 1 1 2 2 3 2 3 3 2 2 2
3 4 3 3 1 1 2 1 0 2 5 4 8 12 13 14 13 12 11 9 7 7 7 6 6 5 4 3 3 2 2 1 1 1 2 2 1 1 0 0 1 1 1 1 1 1 2 2 2
3 3 2 2 1 2 2 2 1 2 2 6 9 11 12 12 10 7 7 6 6 7 6 5 5 5 4 3 2 3 2 2 1 1 1 2 1 1 0 0 0 1 1 1 1 1 2 2 3
2 1 1 2 1 0 3 1 1 2 4 7 10 10 10 11 10 8 7 7 7 6 5 5 5 5 4 3 3 2 2 2 2 1 1 1 1 1 0 0 1 1 1 1 1 1 1 2 2
1 2 4 2 1 0 3 2 1 2 5 8 8 8 8 7 8 9 8 7 7 6 5 5 5 5 5 4 3 3 2 2 2 1 1 1 1 1 1 0 1 1 1 1 1 2 1 2 2
3 3 3 4 1 1 3 2 3 2 7 7 7 7 7 5 5 5 6 5 5 5 5 5 5 5 4 4 3 3 3 2 2 1 1 1 1 2 1 1 1 1 1 1 1 1 1 2 2
4 2 1 4 2 1 2 3 2 2 6 6 6 6 6 5 4 4 4 5 5 5 5 5 5 5 4 4 3 3 3 2 1 1 1 1 1 2 2 1 0 1 1 1 1 1 1 2 3
2 1 1 3 2 2 1 3 2 3 5 5 5 6 6 6 6 4 4 4 4 5 4 5 4 4 4 4 3 3 2 2 1 1 1 1 1 1 2 1 1 1 1 1 1 1 1 1 2
3 2 2 4 2 1 2 2 4 4 4 5 6 6 7 7 5 4 4 5 5 5 5 5 5 4 4 3 3 2 2 1 1 1 1 1 1 1 2 1 1 1 0 1 1 1 2 2 2
2 2 2 3 1 2 2 2 3 4 5 6 7 8 9 7 5 5 5 6 5 5 5 5 5 4 4 3 3 2 2 2 1 0 1 1 1 1 1 1 0 0 0 1 2 1 1 1 1
2 4 4 3 1 2 2 2 3 2 2 3 4 5 5 7 8 7 7 6 6 6 6 5 5 4 3 3 3 3 3 2 1 1 0 1 1 1 1 0 0 0 0 1 2 1 0 1 2
3 4 4 3 2 2 1 2 5 3 3 4 5 5 6 6 6 6 7 7 6 6 5 5 5 4 4 4 4 5 3 2 2 2 1 0 1 1 1 1 0 0 0 1 1 1 1 1 2
3 1 2 2 2 1 2 1 6 1 4 7 6 6 6 5 5 6 7 7 6 5 5 5 5 4 4 4 5 4 3 2 1 1 1 0 1 1 1 0 0 1 1 1 2 1 1 1 2
3 5 5 5 5 1 2 2 6 4 6 5 5 4 4 4 4 5 5 4 4 5 5 5 5 4 4 4 4 5 5 4 3 2 1 1 1 1 1 1 1 1 1 1 2 2 2 2 2
4 5 4 5 4 4 2 2 9 5 4 5 5 4 3 4 5 4 5 5 5 5 5 5 6 5 4 5 4 5 5 5 5 4 3 2 1 1 2 1 1 1 2 2 2 2 2 2 2
2 6 6 3 4 5 3 5 7 3 2 1 2 3 3 3 5 5 5 5 5 5 5 6 6 5 5 4 4 3 3 3 3 3 3 3 2 2 2 1 2 2 2 2 2 2 3 2 3
3 2 4 6 1 2 5 6 7 2 2 1 1 1 1 2 4 5 4 5 4 5 5 6 6 5 5 4 4 3 3 3 3 2 2 2 2 2 1 1 2 2 2 3 2 2 3 3 3
3 6 5 4 3 3 5 4 5 4 4 2 1 1 1 1 2 4 4 5 4 4 4 4 5 5 4 4 3 3 3 3 3 2 2 2 2 1 1 2 2 3 3 3 2 3 3 3 3
2 3 4 4 4 4 3 7 5 4 4 4 3 2 2 2 2 3 4 4 4 3 4 4 4 3 3 3 3 2 2 2 2 2 3 2 2 2 2 2 3 3 3 3 3 4 4 4 4
2 3 5 3 2 3 3 8 4 2 2 2 2 1 1 2 3 3 4 4 4 4 4 4 4 4 3 3 3 3 2 2 2 2 2 2 2 2 2 2 2 3 3 3 3 4 4 4 4
Wind_Direction
198 99 100 72 59 51 266 257 232 280 73 94 114 126 135 143 168 200 93 138 135 142 150 153 151 146 141 137 134 132 130 127 125 124 124 123 122 122 123 124 126 129 127 125 120 121 119 117 117
130 119 68 65 89 80 271 249 219 195 165 119 85 83 90 94 74 107 121 139 138 141 145 150 151 147 144 141 138 136 134 132 130 129 128 127 126 126 127 126 126 129 128 129 126 125 127 131 140
146 92 88 81 122 189 232 238 164 66 49 116 98 76 98 122 131 138 138 138 134 138 141 153 150 148 146 144 142 140 138 136 135 134 132 130 130 131 133 134 134 133 135 141 145 144 145 150 167
104 59 59 81 213 228 227 242 153 103 16 47 111 94 82 65 144 135 135 140 138 139 142 154 150 149 147 146 145 143 141 139 139 138 136 136 137 137 140 143 142 144 154 165 171 177 194 218 238
62 81 74 42 253 257 249 241 194 177 157 105 109 115 48 21 111 126 137 143 143 141 142 152 151 150 150 149 148 147 145 144 143 142 140 140 141 144 149 153 156 165 184 204 222 236 252 260 269
63 72 98 218 261 276 268 237 173 138 134 117 110 117 57 98 124 136 138 139 140 142 141 148 154 152 152 152 151 149 147 146 146 145 144 144 145 153 161 172 190 207 236 251 264 273 278 277 278
108 106 158 200 248 284 256 193 148 147 151 160 143 125 118 140 138 135 131 128 129 135 138 141 149 153 154 152 152 151 148 147 147 148 149 148 147 150 154 162 193 247 264 274 278 280 278 277 280
126 109 139 218 217 253 269 30 64 115 160 112 130 149 176 162 136 124 121 123 127 132 140 142 140 140 146 152 155 152 146 144 145 147 146 143 140 137 131 68 356 330 321 311 312 311 301 299 300
95 82 195 222 204 233 249 48 13 72 111 90 100 158 148 137 132 128 128 131 140 148 151 148 145 142 140 141 153 149 144 141 144 147 147 136 72 41 23 353 335 316 309 312 325 326 327 328 326
100 141 223 223 205 209 257 183 172 111 106 138 106 109 130 140 145 152 156 160 163 168 169 161 155 148 142 149 136 120 130 128 126 114 112 97 89 56 34 3 344 337 340 341 348 351 352 349 334
154 189 229 245 221 199 212 240 183 150 214 207 174 155 148 151 155 165 168 167 170 167 165 165 160 152 151 142 128 121 119 115 112 106 105 105 95 62 30 13 351 346 356 1 3 3 353 347 332
174 238 223 247 215 163 189 173 143 193 224 181 159 154 154 160 168 174 173 170 160 158 168 169 165 157 157 145 135 132 132 127 126 129 125 123 117 98 71 6 331 351 359 8 3 352 341 339 328
200 252 261 251 264 179 145 155 166 249 197 128 132 141 156 166 171 169 161 157 158 168 173 166 158 156 156 148 145 144 146 145 145 132 132 138 138 144 157 343 3 359 4 1 339 336 340 339 329
213 207 303 320 333 184 132 34 92 243 135 127 138 150 162 169 167 162 166 170 169 169 168 155 152 155 157 157 153 149 146 139 126 118 124 131 132 136 137 46 21 354 343 339 327 324 327 316 311
70 34 352 344 5 183 112 23 238 195 137 139 151 155 159 162 165 174 176 173 171 167 157 153 156 154 157 156 156 143 134 130 126 123 114 119 128 137 130 80 11 342 343 346 354 344 333 318 316
49 48 356 311 7 19 115 224 250 162 151 155 160 161 162 165 173 175 162 156 160 151 144 152 157 149 154 152 140 129 125 127 128 124 114 111 118 124 117 95 12 348 3 1 350 346 332 322 314
34 47 299 307 345 73 122 221 245 155 158 166 170 169 169 167 174 175 153 151 154 152 148 144 141 146 151 136 123 117 117 123 127 118 116 117 116 123 119 113 27 28 28 358 336 353 320 310 311
229 239 280 277 294 83 143 240 240 174 172 180 177 178 180 185 193 169 152 148 144 145 143 141 139 139 139 126 114 111 110 111 106 118 134 126 122 117 106 97 38 43 37 356 336 316 318 295 304
172 181 252 269 273 116 203 242 252 198 184 191 192 191 197 199 182 156 151 147 143 144 145 150 152 151 143 136 143 142 147 140 133 139 129 120 113 106 102 86 40 34 11 313 327 323 326 328 332
170 180 254 293 307 150 172 250 247 205 202 203 204 205 203 192 177 171 165 162 162 164 162 158 163 161 162 165 162 153 145 150 149 124 59 65 88 98 124 110 86 4 336 347 344 346 328 322 350
222 192 211 217 357 49 111 316 273 246 206 217 217 216 207 197 192 183 176 176 169 169 170 168 160 160 162 145 128 116 96 80 77 59 359 341 34 57 64 100 174 212 143 298 308 314 299 302 310
264 230 194 182 113 309 105 266 274 250 254 236 233 223 217 206 196 185 178 182 184 181 166 160 156 154 153 145 147 152 151 164 189 187 195 289 9 26 31 16 333 264 286 291 294 304 275 263 289
220 119 115 107 132 53 2 180 278 273 250 249 244 234 223 202 193 191 188 189 183 169 167 160 155 156 153 151 153 155 152 159 155 142 141 116 331 332 332 325 23 16 340 298 296 300 289 252 261
126 65 56 53 69 10 257 180 272 233 228 248 240 231 213 188 191 189 185 176 176 164 163 158 156 161 160 159 164 165 163 161 161 178 187 227 293 311 310 310 345 332 308 296 292 285 283 270 263
78 79 27 2 10 260 262 216 248 248 236 226 229 228 209 190 193 188 179 182 178 173 169 165 166 174 171 166 180 178 172 172 182 193 197 200 222 262 278 310 314 307 290 290 294 295 295 280 271
168 135 155 201 229 276 309 244 257 272 285 265 202 180 179 190 194 191 187 184 181 180 174 172 175 178 176 172 180 172 169 174 190 199 196 197 208 228 244 280 297 297 297 302 304 293 289 287 279
137 152 162 137 164 279 278 283 300 294 348 15 81 124 164 194 195 192 183 176 174 179 181 182 179 178 177 176 174 172 175 179 187 193 190 199 213 229 238 266 292 298 298 302 302 289 288 289 283
113 141 98 111 144 269 290 278 260 270 282 301 259 215 230 213 188 178 175 171 173 179 172 165 168 174 174 171 174 177 184 189 187 180 197 208 218 223 238 272 284 288 293 298 296 294 292 293 289
71 82 96 105 142 163 268 274 240 236 241 243 245 230 221 203 177 172 165 164 160 157 156 154 157 160 165 169 170 173 190 192 181 189 208 213 220 227 237 257 268 278 288 293 290 289 291 293 299
145 153 139 137 219 178 203 268 281 244 250 231 244 231 196 158 150 147 143 146 156 168 166 164 168 165 175 170 166 181 187 179 191 213 224 219 231 244 245 253 267 280 289 287 280 283 288 287 296